This is the latest recevied weather packets stored in our database for station/object N6DZK. If no packets are shown the sender has not sent any weather packets the latest 10 day(s).
| Time | Temp. | Humidity | Pressure | Rain* | Wind** | Luminosity | Snow |
|---|---|---|---|---|---|---|---|
| 1777173601 | 11.67° C | 79% | 1010.5 hPa | 0 mm | - | 0 W/m² | - |
| 1777173295 | 11.67° C | 79% | 1010.7 hPa | 0 mm | - | 0 W/m² | - |
| 1777172991 | 11.67° C | 79% | 1010.5 hPa | 0 mm | - | 0 W/m² | - |
| 1777172689 | 11.67° C | 78% | 1010.7 hPa | 0 mm | - | 0 W/m² | - |
| 1777172384 | 11.67° C | 79% | 1010.5 hPa | 0 mm | - | 0 W/m² | - |
| 1777172079 | 11.67° C | 79% | 1010.5 hPa | 0 mm | - | 1 W/m² | - |
| 1777171777 | 12.22° C | 79% | 1010.5 hPa | 0 mm | - | 1 W/m² | - |
| 1777171473 | 12.22° C | 79% | 1010.5 hPa | 0 mm | - | 2 W/m² | - |
| 1777171168 | 12.22° C | 79% | 1010.6 hPa | 0 mm | - | 2 W/m² | - |
| 1777170867 | 12.22° C | 78% | 1010.5 hPa | 0 mm | - | 4 W/m² | - |
| 1777170564 | 12.22° C | 78% | 1010.5 hPa | 0 mm | - | 7 W/m² | - |
| 1777170260 | 12.22° C | 78% | 1010.5 hPa | 0 mm | - | 8 W/m² | - |
| 1777169957 | 12.22° C | 78% | 1010.5 hPa | 0 mm | - | 9 W/m² | - |
| 1777169654 | 12.78° C | 77% | 1010.5 hPa | 0 mm | - | 11 W/m² | - |
| 1777169350 | 12.78° C | 77% | 1010.4 hPa | 0 mm | - | 13 W/m² | - |
| 1777169045 | 12.78° C | 76% | 1010.4 hPa | 0 mm | - | 15 W/m² | - |
| 1777168741 | 12.78° C | 76% | 1010.5 hPa | 0 mm | - | 21 W/m² | - |
| 1777168437 | 12.78° C | 75% | 1010.8 hPa | 0 mm | - | 25 W/m² | - |
| 1777168135 | 12.78° C | 76% | 1010.6 hPa | 0 mm | - | 29 W/m² | - |
| 1777167832 | 12.78° C | 74% | 1010.6 hPa | 0 mm | - | 33 W/m² | - |
| 1777167528 | 12.78° C | 74% | 1010.7 hPa | 0 mm | - | 29 W/m² | - |
| 1777167223 | 13.33° C | 74% | 1010.4 hPa | 0 mm | - | 33 W/m² | - |
| 1777166919 | 13.33° C | 74% | 1010.7 hPa | 0 mm | - | 45 W/m² | - |
| 1777166618 | 13.33° C | 74% | 1010.7 hPa | 0 mm | - | 39 W/m² | - |
| 1777166315 | 13.33° C | 73% | 1010.6 hPa | 0 mm | - | 40 W/m² | - |
* Rain latest hour (hover to see other rain measurements)
** Current wind speed in m/s (hover to see current wind gust speed)